Regional Weather Roundup
Issued by NWS Upton, NY

Current Version | Previous Version | Text Only | Print | Product List | Glossary On
Versions: 1 2 3 4 5 6 7 8 9 10 11 12 13 14 15 16 17 18 19 20 21 22 23 24 25 26 27 28 29 30 31 32 33 34 35 36 37 38 39 40 41 42 43 44 45 46 47 48 49
000 ASUS41 KOKX 181605 RWROKX REGIONAL WEATHER ROUNDUP NATIONAL WEATHER SERVICE NEW YORK NY 1100 AM EST THU DEC 18 2014 NOTE: "FAIR" INDICATES FEW OR NO CLOUDS BELOW 12,000 FEET WITH NO SIGNIFICANT WEATHER AND/OR OBSTRUCTIONS TO VISIBILITY. NYZ071-072-176-178-NJZ106-104-181700- NEW YORK CITY METRO AREA CITY SKY/WX TMP DP RH WIND PRES REMARKS CENTRAL PARK CLOUDY 41 22 46 W8G17 30.00F LAGUARDIA APRT PTSUNNY 40 25 55 NW15G25 29.98F WCI 32 KENNEDY INTL MOSUNNY 43 22 43 NW16G26 29.99F NEWARK/LIBERTY PTSUNNY 42 23 46 W16G30 29.99F BRNX BOT. GARD N/A N/A N/A N/A W23 30.00F TETERBORO PTSUNNY 39 23 52 NW14G22 29.98S WCI 31 $$ NYZ177-179-078>081-181700- LONG ISLAND NEW YORK CITY SKY/WX TMP DP RH WIND PRES REMARKS FARMINGDALE SUNNY 42 23 46 NW12G24 29.97F ISLIP MOSUNNY 41 24 51 W20G28 29.93F SHIRLEY MOSUNNY 42 24 49 W24G31 29.94F WESTHAMPTON MOSUNNY 42 24 49 NW21G29 29.94F MONTAUK POINT N/A 42 28 57 W17G33 29.90S $$ NYZ052-065-067-181700- HUDSON VALLEY CITY SKY/WX TMP DP RH WIND PRES REMARKS WHITE PLAINS PTSUNNY 39 23 52 NW13G24 29.94S WCI 31 NEWBURGH PTSUNNY 36 25 64 NW23G35 29.94S WCI 24 MONTGOMERY CLOUDY 38 24 57 NW16G25 29.94F WCI 29 POUGHKEEPSIE PTSUNNY 41 24 51 W10 29.93F ALBANY CLOUDY 36 26 67 NW14G25 29.94R WCI 27 $$ NJZ001-105-106-008-010-013-015-019>022-104-181700- NEW JERSEY CITY SKY/WX TMP DP RH WIND PRES REMARKS NEWARK/LIBERTY PTSUNNY 42 23 46 W16G30 29.99F TETERBORO PTSUNNY 39 23 52 NW14G22 29.98S WCI 31 CALDWELL CLOUDY 38 22 52 NW13G23 29.99F WCI 30 MORRISTOWN CLOUDY 39 25 56 NW16G25 30.01F WCI 30 SOMERVILLE CLOUDY 40 22 48 NW12G21 30.00F WCI 33 SUSSEX CLOUDY 37 23 56 VRB7 29.97F WCI 32 ANDOVER N/A 37 22 54 NW10G17 29.98F WCI 30 TRENTON CLOUDY 38 21 50 NW13 30.04F WCI 30 MILLVILLE SUNNY 39 21 48 NW18G26 30.08F WCI 30 ATLANTIC CITY SUNNY 40 22 48 NW20G29 30.05F WCI 30 WRIGHTSTOWN CLOUDY 38 21 49 NW16G22 30.03F WCI 30 TOMS RIVER CLOUDY 39 23 52 W15G23 30.04F WCI 31 BELMAR MOSUNNY 39 21 48 NW20G28 30.01F WCI 30 $$ PAZ047>061-062-071-181700- EASTERN PENNSYLVANIA CITY SKY/WX TMP DP RH WIND PRES REMARKS PHILADELPHIA CLOUDY 38 21 50 W14 30.10F WCI 30 ALLENTOWN CLOUDY 38 21 50 W13G18 30.04F WCI 30 SCRANTON CLOUDY 35 23 61 NW13G22 30.00F WCI 26 $$ CTZ002-004>006-009-010-012-RIZ004-006-007-MAZ004-011-015-181700- SOUTHERN NEW ENGLAND IN CT CITY SKY/WX TMP DP RH WIND PRES REMARKS BRADLEY INTL PTSUNNY 40 26 57 NW17G25 29.88S WCI 31 HARTFORD CLOUDY 39 26 59 NW14G24 29.91S WCI 31 DANBURY CLOUDY 38 21 50 NW12G21 29.93F WCI 30 WTRBRY/OXFORD CLOUDY 36 21 55 W5 29.91S WCI 32 BRIDGEPORT CLOUDY 42 24 49 NW16G22 29.93S MERIDEN CLOUDY 39 26 59 NW10 29.92S WCI 32 NEW HAVEN PTSUNNY 43 25 49 NW13G21 29.92S CHESTER CLOUDY 37 27 65 NW23G31 29.89F WCI 26 GROTON CLOUDY 39 26 59 NW15G29 29.88S WCI 31 WILLIMANTIC CLOUDY 39 26 59 NW15G25 29.87S WCI 31 IN RI CITY SKY/WX TMP DP RH WIND PRES REMARKS PROVIDENCE MOSUNNY 43 26 51 NW20G28 29.82F BLOCK ISLAND CLOUDY 43 27 52 NW20G28 29.86S WESTERLY CLOUDY 40 26 57 VRB7G24 29.87R IN MA CITY SKY/WX TMP DP RH WIND PRES REMARKS BOSTON MOSUNNY 41 31 67 W14G24 29.77F WORCESTER MOSUNNY 36 28 73 NW16G35 29.77S WCI 26 WESTFIELD CLOUDY 39 26 59 NW10G22 29.86F WCI 32 PROVINCETOWN PTSUNNY 41 32 70 W25G32 29.75F NANTUCKET CLOUDY 42 30 62 W16G30 29.79F $$ ANZ330-335-338-340-345-350-353-355-181700- COASTAL MARINE OBSERVATIONS STATION/POSITION TIME SKY/WX TEMP WIND PRES VSBY WAVE AIR SEA DIR/SP/G HT/PER (UTC) (F) (DEG/KT/KT) (MB) (MI) (FT/S) NY HARB ENTRANCE 1600 40 47 290/ 19/ 25 1015.7 3/ 4 4S FIRE IS 1600 46 N/A 4/ 5 20S FIRE ISLAND 1500 41 50 1015.7 5/ 5 23SW MTP 1600 N/A 6/ 6 HUDSON CANYON 1600 41 55 310/ 23/ 27 1014.6 8/ 7 EXECUTION ROCKS 1600 40 42 310/ 19/ 25 N/A WESTERN LI SOUND 1600 40 300/ 17/ 23 N/A 2/ 3 CENTRAL LI SOUND 1500 40 45 290/ 16/ 19 N/A 3/ 5 EASTERN LI SOUND NOT AVBL ROBBINS REEF 1600 39 130/ 20/ 23 1014.3 $$ >>>>>>>>>>>>>>>>>>>>>>>>>>>> KEY <<<<<<<<<<<<<<<<<<<<<<<<<<< > < > SKY/WX - SKY CONDITION/PRESENT WEATHER < > TMP - TEMPERATURE IN FAHRENHEIT < > DP - DEWPOINT IN FAHRENHEIT < > RH - RELATIVE HUMIDITY IN PERCENT < > WIND - DIRECTION AND SPEED IN MPH < > PRES - MEAN SEA LEVEL PRESSURE IN INCHES OF HG < > WCI - WIND CHILL INDEX < > VSB - VISIBILITY IN MILES < > HX - HEAT INDEX < > TC - TEMPERATURE IN CELSIUS < > VRB - VARIABLE WIND DIRECTION < > < >>>>>>>>>>>>>>>>>>>>>>>>>>>> KEY <<<<<<<<<<<<<<<<<<<<<<<<<<<

USA.gov is the U.S. government's official web portal to all federal, state and local government web resources and services.